Date,TemperatureHighF,TemperatureAvgF,TemperatureLowF,DewpointHighF,DewpointAvgF,DewpointLowF,HumidityHigh,HumidityAvg,HumidityLow,PressureMaxIn,PressureMinIn,WindSpeedMaxMPH,WindSpeedAvgMPH,GustSpeedMaxMPH,PrecipitationSumIn
2013-1-1,36.8,34.8,31.6,33.6,31.2,24.5,92,87,76,30.18,30.06,3,1,8,0.07
2013-1-2,33.2,29.0,25.6,25.3,22.7,20.6,85,77,62,30.29,30.17,3,0,7,0.00
2013-1-3,40.5,29.5,21.2,26.8,21.7,18.5,90,74,49,30.41,30.25,3,0,12,0.00
2013-1-4,41.6,32.6,26.7,27.9,25.1,22.5,86,74,57,30.44,30.38,4,1,16,0.00
2013-1-5,45.7,34.1,22.8,31.3,26.4,19.7,92,75,51,30.41,30.21,4,0,11,0.00
2013-1-6,41.9,37.3,28.2,34.6,29.0,21.8,78,72,66,30.41,30.11,3,2,14,0.00
2013-1-7,42.2,30.4,21.2,28.5,23.4,18.0,90,76,55,30.49,30.26,2,0,5,0.00
2013-1-8,54.7,37.2,25.0,36.5,29.4,21.9,90,75,48,30.35,30.23,5,1,13,0.00
2013-1-9,58.8,47.9,37.6,46.5,40.9,32.9,87,77,54,30.50,30.24,4,1,8,0.00
2013-1-10,50.6,45.7,40.7,48.7,41.4,34.1,93,85,66,30.50,30.03,2,0,5,0.15
2013-1-11,67.1,57.8,47.9,57.8,51.6,45.7,95,81,55,30.03,29.86,5,2,13,0.43
2013-1-12,68.6,63.5,56.4,63.5,59.7,53.3,95,88,79,30.01,29.76,7,2,18,0.01
2013-1-13,68.8,52.9,33.0,61.7,49.8,29.5,94,89,75,30.20,29.73,10,2,27,2.37
2013-1-14,32.9,29.2,26.5,29.5,23.2,21.2,87,78,68,30.48,30.20,5,2,11,0.00
2013-1-15,33.1,28.9,24.5,29.5,24.2,20.6,92,82,73,30.37,30.09,5,3,10,0.00
2013-1-16,34.3,32.4,30.9,30.4,29.3,28.4,92,88,84,30.16,30.03,3,0,7,0.02
2013-1-17,45.8,36.2,29.4,33.9,28.6,23.9,89,75,47,30.44,30.13,8,2,18,0.19
2013-1-18,44.1,33.8,23.9,28.3,23.7,19.1,88,68,47,30.56,30.30,5,1,13,0.01
2013-1-19,56.6,47.6,38.7,31.4,29.2,27.3,64,50,34,30.30,30.00,9,5,21,0.00
2013-1-20,48.2,39.1,28.0,35.4,19.0,8.0,72,46,26,30.27,30.04,4,1,12,0.00
2013-1-21,31.1,25.9,16.9,18.0,10.2,1.3,72,52,34,30.34,30.18,5,1,16,0.00
2013-1-22,23.3,17.3,12.0,3.8,0.6,-2.0,58,48,35,30.48,30.33,3,1,9,0.00
2013-1-24,29.2,26.4,24.1,3.9,0.5,-3.9,41,32,25,30.55,30.42,3,1,9,0.00
2013-1-25,29.7,26.3,23.9,24.5,17.6,3.9,88,71,41,30.44,30.11,2,0,8,0.00
2013-1-26,37.6,29.2,22.0,24.4,21.7,19.0,91,75,53,30.43,30.21,4,0,9,0.01
2013-1-27,47.5,34.5,24.7,42.7,27.4,18.8,91,75,61,30.44,30.15,5,0,13,0.15
2013-1-28,58.0,52.7,47.5,52.5,47.2,40.8,91,82,70,30.16,30.06,8,4,23,0.27
2013-1-29,67.1,61.8,56.8,60.1,55.8,51.5,86,81,77,30.07,29.55,11,5,26,0.00
2013-1-30,69.8,53.7,33.5,61.7,47.8,24.8,93,81,69,29.72,29.31,12,5,31,0.86
2013-1-31,36.8,31.1,19.4,28.2,21.8,10.7,88,69,55,30.17,29.72,7,2,20,0.00
2013-2-1,21.5,16.2,9.2,11.9,6.4,0.1,76,65,55,30.52,30.17,4,1,14,0.01
2013-2-2,36.7,29.0,18.4,28.2,22.3,11.4,88,76,59,30.38,30.06,5,1,12,0.01
2013-2-3,32.4,29.3,22.7,26.6,22.5,17.3,86,76,64,30.18,30.00,4,1,13,0.00
2013-2-4,46.3,33.8,20.3,40.8,27.7,16.5,93,79,52,30.17,29.85,7,1,21,0.11
2013-2-5,50.8,42.1,35.4,40.0,35.4,30.8,90,78,54,30.05,29.88,5,1,12,0.00
2013-2-6,43.8,36.3,28.3,33.3,30.1,25.7,92,79,63,30.28,30.05,3,0,7,0.00
2013-2-7,66.2,48.7,33.9,44.2,36.4,29.9,86,65,40,30.20,29.83,5,1,13,0.00
2013-2-8,54.9,39.9,33.4,47.7,33.9,27.1,92,79,67,30.36,29.83,5,2,14,0.15
2013-2-9,46.9,37.2,27.4,28.6,26.1,23.6,87,65,45,30.43,30.19,4,1,10,0.00
2013-2-10,58.1,46.6,36.0,50.7,38.2,24.5,92,74,46,30.19,29.81,7,2,21,0.21
2013-2-11,55.6,49.1,38.8,51.8,36.3,27.6,89,63,40,30.12,29.81,7,3,16,0.00
2013-2-12,50.9,40.9,29.9,31.7,28.6,25.4,84,63,40,30.18,29.91,4,0,8,0.00
2013-2-13,42.9,38.0,32.8,34.9,30.9,28.6,91,76,60,29.95,29.79,5,1,11,0.07
2013-2-14,57.4,44.4,35.4,39.7,35.2,31.3,87,72,45,30.01,29.88,7,3,16,0.00
2013-2-15,45.4,38.6,29.3,35.0,28.4,19.0,83,67,46,30.20,30.01,4,1,13,0.00
2013-2-16,36.7,28.7,23.3,20.6,15.7,8.0,83,60,36,30.19,30.10,5,1,13,0.00
2013-2-17,39.6,29.6,20.8,18.8,15.4,13.2,77,56,35,30.29,30.17,3,1,9,0.00
2013-2-18,61.9,45.2,27.4,42.2,29.3,15.9,80,56,34,30.20,29.76,11,4,30,0.18
2013-2-19,48.1,36.8,25.2,42.9,26.4,15.1,88,67,45,30.22,29.72,11,3,27,0.22
2013-2-20,33.4,27.3,20.7,16.7,14.1,12.2,72,58,46,30.36,30.22,3,1,10,0.00
2013-2-21,38.2,30.1,21.9,29.5,20.3,14.9,87,67,50,30.36,30.02,4,2,11,0.18
2013-2-22,49.0,40.7,32.9,41.4,36.1,29.6,94,84,70,30.02,29.88,4,1,13,0.25
2013-2-23,46.7,37.9,30.4,34.3,26.3,22.6,83,64,44,30.05,29.92,3,1,9,0.00
2013-2-24,48.7,35.6,25.0,28.0,24.7,20.6,84,66,42,30.17,29.99,3,0,9,0.00
2013-2-25,51.9,40.4,28.6,28.0,25.2,23.3,84,57,35,30.14,29.79,5,1,13,0.00
2013-2-26,50.6,44.5,40.5,48.7,38.3,25.3,93,80,48,29.79,29.36,5,2,15,0.62
2013-2-27,41.1,38.3,33.9,36.8,33.2,29.4,90,82,67,29.81,29.58,5,3,15,0.03
2013-2-28,37.6,35.7,33.8,33.5,31.4,29.0,88,85,82,30.01,29.80,4,1,13,0.04
2013-3-1,39.1,35.8,33.7,34.3,32.0,30.8,91,86,74,30.05,29.98,3,0,8,0.08
2013-3-2,34.0,31.5,30.3,31.6,25.0,22.1,91,77,67,30.14,30.04,5,2,9,0.01
2013-3-3,40.2,32.2,26.5,24.9,20.5,14.9,84,63,41,30.15,30.08,4,1,11,0.02
2013-3-4,44.9,34.9,22.0,27.5,21.3,16.9,83,60,38,30.18,29.94,4,1,10,0.00
2013-3-5,46.5,40.1,31.1,44.6,35.0,26.8,94,83,54,29.94,29.60,6,1,18,0.41
2013-3-6,35.1,33.0,31.0,29.7,28.3,27.0,88,82,78,30.32,29.82,4,2,15,0.01
2013-3-7,38.5,35.1,32.0,30.4,28.2,26.8,86,76,66,30.41,30.30,2,0,6,0.01
2013-3-8,50.2,39.8,27.8,30.6,27.4,23.1,88,63,41,30.47,30.35,4,1,9,0.00
2013-3-9,61.7,47.8,31.3,38.1,31.6,26.5,84,56,31,30.35,30.03,4,1,11,0.00
2013-3-10,70.4,61.4,49.8,48.8,35.6,32.8,79,39,27,30.03,29.78,9,4,21,0.04
2013-3-11,55.2,48.8,39.0,53.2,44.2,32.3,93,84,65,29.93,29.68,9,2,23,1.15
2013-3-12,50.6,41.5,36.2,33.1,29.1,23.3,79,62,43,30.12,29.93,4,2,12,0.00
2013-3-13,38.0,33.7,28.3,32.1,21.9,15.4,81,62,47,30.40,30.09,5,2,16,0.00
2013-3-14,47.9,34.3,22.8,32.7,23.3,18.6,88,67,36,30.43,30.24,4,1,12,0.00
2013-3-15,63.9,46.3,29.9,44.0,36.4,27.9,92,71,45,30.24,29.76,5,1,10,0.01
2013-3-16,71.2,61.2,43.9,52.4,47.1,38.2,82,61,45,29.99,29.66,7,3,16,0.01
2013-3-17,43.8,38.2,34.1,38.7,35.1,31.7,92,89,81,30.09,29.91,5,2,11,0.99
2013-3-18,52.6,43.3,36.7,49.4,40.0,34.6,95,89,76,29.91,29.64,5,1,13,0.66
2013-3-19,49.2,40.7,32.1,35.5,24.0,12.9,86,55,25,30.18,29.90,5,2,15,0.00
2013-3-20,44.2,34.4,26.7,25.2,19.0,11.7,78,54,35,30.17,30.03,5,2,21,0.00
2013-3-21,35.4,27.9,21.9,16.5,12.8,10.0,64,54,37,30.09,30.02,4,1,12,0.00
2013-3-22,44.7,33.5,21.1,21.6,17.3,14.4,83,54,33,30.12,30.02,3,0,9,0.00
2013-3-23,56.4,46.0,38.0,30.1,24.7,19.0,58,44,33,30.05,29.83,4,1,10,0.00
2013-3-24,47.8,40.0,36.6,38.2,33.0,24.5,93,78,43,29.84,29.40,5,2,12,0.55
2013-3-25,37.1,34.2,32.5,33.0,30.1,28.0,91,85,76,30.04,29.50,4,2,15,0.04
2013-3-26,42.1,36.8,33.5,31.9,28.6,24.2,89,73,52,30.31,30.04,4,1,12,0.02
2013-3-27,47.4,38.3,28.4,28.5,25.5,23.3,84,61,41,30.38,30.31,3,1,9,0.00
2013-3-28,52.9,39.6,26.9,28.6,25.4,22.8,86,60,32,30.41,30.30,3,0,8,0.00
2013-3-29,58.2,44.4,32.6,42.9,34.0,25.9,88,68,48,30.34,30.20,4,1,11,0.00
2013-3-30,62.2,47.5,34.4,44.4,37.8,32.6,95,73,36,30.24,29.94,5,1,11,0.00
2013-3-31,61.7,52.8,48.2,50.4,46.3,42.3,94,80,54,29.94,29.82,3,1,11,0.08
2013-4-1,53.7,47.1,37.3,44.0,30.7,19.3,82,55,27,30.16,29.83,4,2,13,0.00
2013-4-2,50.7,40.1,28.3,23.7,19.4,8.9,76,47,20,30.30,30.15,3,1,9,0.00
2013-4-3,52.7,41.7,28.9,24.5,18.6,13.4,78,43,24,30.41,30.28,4,1,12,0.00
2013-4-4,54.4,46.3,39.4,30.2,21.9,16.0,67,38,31,30.29,30.01,3,1,9,0.00
2013-4-5,67.5,51.3,35.0,35.4,30.5,26.5,78,49,26,30.12,30.00,5,1,10,0.00
2013-4-6,73.5,58.7,43.6,39.7,34.0,28.3,61,41,26,30.16,29.90,7,2,22,0.00
2013-4-7,73.8,66.1,58.1,54.3,46.4,38.0,68,49,35,29.96,29.89,8,4,21,0.00
2013-4-8,74.5,65.2,53.9,57.3,52.3,46.8,78,64,53,29.96,29.87,8,3,22,0.00
2013-4-9,82.1,71.7,59.4,61.3,57.8,52.2,78,62,46,30.03,29.90,8,3,23,0.00
2013-4-10,84.9,75.5,64.4,64.2,60.6,56.8,77,61,48,29.95,29.73,9,3,22,0.00
2013-4-11,76.6,66.1,55.3,62.9,59.5,52.9,94,81,51,29.78,29.50,5,2,15,1.00
2013-4-12,55.6,48.1,40.2,53.0,38.6,33.6,92,71,52,29.97,29.57,4,1,17,0.07
2013-4-13,62.7,49.2,35.8,40.2,35.7,31.5,85,62,38,30.07,29.97,4,1,13,0.00
2013-4-14,76.3,58.5,41.2,48.8,42.0,37.3,87,59,28,30.02,29.82,6,2,21,0.00
2013-4-15,72.6,64.7,58.9,56.1,52.7,48.5,74,66,54,29.98,29.88,5,1,14,0.00
2013-4-16,81.8,69.4,58.4,68.1,61.0,52.9,92,75,59,30.11,29.92,5,2,15,0.32
2013-4-17,78.3,66.7,60.7,68.9,62.4,58.5,94,86,70,30.12,29.91,4,0,15,0.02
2013-4-18,83.4,74.6,65.4,64.4,59.6,54.1,82,62,41,29.91,29.57,10,4,26,0.00
2013-4-19,75.8,48.0,39.2,61.6,39.9,31.2,92,74,52,30.06,29.49,6,2,18,1.15
2013-4-20,57.2,46.7,35.9,35.1,30.7,21.5,87,57,26,30.38,30.06,4,1,11,0.00
2013-4-21,61.8,49.9,39.3,38.2,31.0,27.6,66,50,31,30.49,30.31,4,1,11,0.00
2013-4-22,73.5,55.9,38.4,45.6,39.2,33.7,84,57,31,30.34,30.09,3,0,9,0.00
2013-4-23,70.7,61.0,46.7,54.2,49.0,42.3,87,66,52,30.12,29.85,6,2,18,0.00
2013-4-24,67.8,52.6,38.2,57.1,45.1,35.3,90,76,59,30.27,29.78,6,1,22,0.79
2013-4-25,64.0,48.9,33.4,42.8,36.5,31.3,94,66,36,30.38,30.26,3,1,12,0.01
2013-4-26,65.9,52.4,38.1,43.0,35.9,30.3,88,57,30,30.44,30.31,3,0,9,0.00
2013-4-27,60.2,55.1,50.8,53.7,48.4,42.0,91,78,68,30.34,29.96,2,0,11,0.08
2013-4-28,66.4,58.9,54.2,60.2,55.0,52.2,95,87,74,29.97,29.86,4,1,13,0.13
2013-4-29,69.4,60.7,56.1,56.0,53.5,52.0,90,78,56,30.02,29.92,2,0,9,0.00
2013-4-30,81.6,65.1,47.7,59.5,52.7,44.9,94,68,34,30.02,29.94,2,0,8,0.00
2013-5-1,85.6,70.1,52.9,63.4,56.1,50.6,93,65,37,30.14,30.02,3,0,10,0.00
2013-5-2,78.7,69.8,61.8,60.6,56.7,52.9,79,64,49,30.16,30.03,3,0,11,0.00
2013-5-3,78.7,68.4,61.2,61.0,57.8,55.8,91,70,46,30.03,29.86,4,1,16,0.47
2013-5-4,61.2,56.9,52.9,58.6,51.9,48.3,93,84,64,29.98,29.88,2,0,8,0.86
2013-5-5,54.7,53.5,51.8,52.7,51.0,48.8,94,91,86,29.96,29.86,2,0,11,0.47
2013-5-6,69.5,58.8,53.1,58.5,53.6,50.8,92,83,59,29.92,29.80,2,0,11,0.14
2013-5-7,73.5,63.2,54.5,58.2,55.2,52.2,94,77,49,29.97,29.89,1,0,7,0.03
2013-5-8,78.0,66.0,54.1,62.9,56.6,52.1,95,74,45,30.00,29.91,1,0,7,0.01
2013-5-9,81.3,68.5,57.3,64.6,59.0,54.8,93,74,43,30.02,29.92,3,0,13,0.01
2013-5-10,69.3,65.8,63.0,64.1,61.5,59.1,94,86,73,29.93,29.81,3,0,14,0.88
2013-5-11,64.2,58.4,53.4,61.6,52.7,41.1,94,82,62,30.03,29.86,1,0,7,0.06
2013-5-12,60.9,52.4,42.7,42.0,34.8,28.8,76,53,31,30.16,30.03,2,0,9,0.00
2013-5-13,69.8,54.6,39.4,41.3,36.9,31.3,88,57,26,30.22,30.12,2,1,8,0.00
2013-5-14,85.1,65.8,45.4,61.2,50.6,39.6,86,60,42,30.16,29.84,5,1,20,0.00
2013-5-15,88.4,77.7,68.5,63.0,58.0,52.7,71,52,31,29.96,29.85,3,1,13,0.00
2013-5-16,75.0,70.7,67.1,65.9,59.8,50.6,90,69,50,29.95,29.86,3,0,8,0.02
2013-5-17,76.2,68.3,61.8,66.3,62.5,59.3,94,83,58,30.03,29.94,2,0,10,0.02
2013-5-18,77.7,70.9,65.9,67.7,65.0,62.6,91,82,68,30.02,29.92,2,0,8,0.01
2013-5-19,87.3,74.5,62.0,72.9,67.1,59.6,95,79,59,29.97,29.85,3,1,10,0.00
2013-5-20,86.5,76.4,66.6,71.8,67.7,63.1,91,75,57,29.98,29.85,3,1,14,0.00
2013-5-21,84.7,75.2,67.6,68.9,65.8,62.7,91,73,52,29.94,29.78,4,1,15,0.06
2013-5-22,80.0,70.8,65.5,68.8,63.9,61.2,92,80,62,29.82,29.74,4,1,14,0.35
2013-5-23,72.1,65.3,56.7,63.2,58.7,49.8,93,80,60,30.09,29.80,2,0,11,0.03
2013-5-24,70.8,59.0,51.3,49.8,45.2,36.3,83,63,31,30.33,30.09,2,0,7,0.00
2013-5-25,73.2,59.9,44.8,51.5,44.6,39.3,92,61,32,30.37,30.17,2,0,5,0.00
2013-5-26,74.5,64.4,55.5,55.6,52.5,46.8,88,67,47,30.28,30.13,2,0,6,0.01
2013-5-27,86.0,73.4,59.8,62.4,57.5,52.9,81,59,36,30.14,29.93,4,1,16,0.00
2013-5-28,86.6,78.6,71.3,66.8,61.6,59.5,69,57,43,30.01,29.91,4,2,17,0.00
2013-5-29,88.4,77.4,65.3,67.7,63.5,58.7,83,64,44,30.07,29.95,3,1,14,0.00
2013-5-30,87.8,78.6,71.2,71.0,66.6,62.3,79,67,54,30.09,29.96,5,2,20,0.00
2013-5-31,80.0,75.1,71.9,73.2,68.1,64.3,93,79,69,30.01,29.90,5,2,21,0.28
2013-6-1,76.6,70.8,64.0,69.8,66.2,61.3,94,86,73,29.94,29.76,4,1,12,0.34
2013-6-2,77.8,70.4,64.6,65.3,62.8,59.8,92,78,59,29.92,29.84,2,0,8,0.00
2013-6-3,72.5,65.8,58.2,60.0,56.1,52.4,91,72,54,30.04,29.92,1,0,5,0.00
2013-6-4,78.6,66.1,53.3,62.6,55.7,51.0,94,71,50,30.10,29.99,2,0,7,0.00
2013-6-5,83.8,71.3,58.7,66.1,60.1,53.9,86,69,48,30.03,29.81,3,0,8,0.00
2013-6-6,78.7,72.0,65.9,68.3,65.9,62.6,94,82,63,29.83,29.73,4,0,9,0.03
2013-6-7,80.0,70.9,63.3,65.6,61.7,57.4,94,74,51,29.84,29.75,1,0,5,0.00
2013-6-8,82.1,72.4,64.8,69.4,63.1,60.2,92,74,49,29.99,29.83,2,0,7,0.03
2013-6-9,80.2,71.4,63.1,70.2,64.6,60.4,92,80,57,30.02,29.85,4,1,12,0.15
2013-6-10,76.7,70.5,65.5,67.6,65.0,63.3,95,84,68,29.89,29.78,3,1,13,0.50
2013-6-11,86.3,74.3,62.1,70.0,65.3,60.1,94,75,51,29.98,29.88,2,0,12,0.00
2013-6-12,92.2,82.9,73.1,77.5,73.2,68.0,91,73,57,29.94,29.73,4,1,14,0.00
2013-6-13,83.6,78.1,70.3,73.9,63.6,54.1,75,62,47,29.94,29.69,3,1,12,0.00
2013-6-14,82.8,70.4,56.2,62.3,57.5,52.7,89,65,43,30.03,29.91,2,0,7,0.00
2013-6-15,86.7,74.1,60.7,65.8,62.2,58.1,92,69,44,30.08,29.94,3,0,14,0.00
2013-6-16,83.0,73.5,66.7,71.7,67.0,63.6,95,81,65,30.02,29.93,3,0,10,0.34
2013-6-17,88.1,72.5,65.9,74.6,67.5,63.1,96,86,60,29.97,29.84,4,0,8,0.43
2013-6-18,85.2,73.5,65.5,69.2,64.6,57.3,95,76,50,29.94,29.81,4,0,9,0.05
2013-6-19,83.5,72.8,62.8,67.7,63.1,60.7,95,73,50,30.07,29.93,1,0,6,0.00
2013-6-20,87.0,75.5,61.7,68.3,63.0,58.5,92,68,41,30.15,30.07,3,0,9,0.00
2013-6-21,88.7,77.1,64.6,71.6,66.2,61.7,91,71,50,30.17,30.06,3,0,10,0.00
2013-6-22,89.7,79.2,67.5,73.6,68.9,65.2,93,72,51,30.15,30.02,3,1,11,0.00
2013-6-24,70.2,69.9,69.4,67.7,67.4,67.0,92,92,91,30.04,30.03,0,0,1,0.04
2013-6-25,91.6,79.3,66.8,77.5,71.5,65.2,95,79,55,30.04,29.87,3,1,10,0.01
2013-6-26,87.0,76.9,68.1,75.8,71.0,66.0,95,83,67,29.95,29.71,4,1,12,0.42
2013-6-27,87.7,77.4,69.0,77.6,72.1,67.5,96,85,63,29.78,29.71,2,0,9,0.19
2013-6-28,87.3,80.0,73.4,72.5,65.8,58.6,85,64,40,29.72,29.58,2,0,9,0.04
2013-6-29,82.2,72.7,64.2,70.8,63.9,59.9,94,75,56,29.63,29.54,3,0,8,0.03
2013-6-30,81.5,69.9,63.4,67.2,64.6,61.6,95,85,56,29.78,29.62,2,0,7,0.02
2013-7-1,79.8,68.1,63.8,68.8,64.5,61.0,95,89,62,29.88,29.76,2,0,4,0.02
2013-7-2,65.5,65.1,63.9,64.3,63.4,62.4,96,94,94,29.93,29.86,1,0,3,0.00
2013-7-3,80.9,69.9,65.3,69.3,65.1,63.5,94,86,60,30.07,29.92,4,0,11,0.02
2013-7-4,71.0,69.3,66.8,69.5,67.9,65.5,96,95,94,30.11,30.03,2,0,5,0.11
2013-7-5,80.0,71.9,65.8,72.2,68.4,64.6,96,89,75,30.10,30.04,2,0,9,0.02
2013-7-6,73.5,69.9,66.5,68.4,67.0,65.3,96,91,80,30.09,30.04,2,0,6,0.01
2013-7-7,84.8,74.2,66.2,70.9,67.3,64.8,96,81,58,30.09,30.01,2,0,8,0.00
2013-7-8,88.6,77.1,66.1,74.0,69.9,64.6,96,80,56,30.12,30.01,3,0,9,0.00
2013-7-9,89.6,81.7,74.0,76.8,73.4,70.8,91,77,59,30.07,29.95,2,0,11,0.00
2013-7-10,88.8,78.3,70.6,79.9,72.9,67.5,93,84,66,29.97,29.82,4,1,11,0.05
2013-7-11,83.0,77.4,69.4,70.0,65.4,60.1,94,68,49,29.96,29.89,2,0,5,0.00
2013-7-12,81.8,72.5,59.8,62.4,59.1,56.4,93,65,44,30.05,29.97,2,0,8,0.00
2013-7-13,83.7,73.3,63.2,69.6,63.4,59.8,89,72,57,30.07,29.99,2,0,10,0.00
2013-7-14,89.8,77.9,67.2,76.2,69.8,64.2,95,78,55,30.15,30.05,3,0,14,0.15
2013-7-15,90.2,80.0,70.7,74.3,71.7,69.5,96,78,54,30.25,30.15,3,0,9,0.00
2013-7-16,91.0,81.4,71.3,76.3,72.8,69.5,94,76,55,30.29,30.20,1,0,6,0.00
2013-7-17,93.8,81.5,73.3,77.8,74.0,71.3,94,80,51,30.28,30.14,2,0,8,0.03
2013-7-18,91.5,82.3,75.0,79.3,75.5,72.7,94,81,59,30.17,29.99,3,0,8,0.03
2013-7-19,91.0,81.5,72.8,76.6,72.6,69.0,90,75,56,30.02,29.88,2,1,9,0.00
2013-7-20,90.2,80.7,74.2,75.8,72.6,69.3,91,77,57,29.91,29.82,3,1,11,0.03
2013-7-21,88.6,77.9,71.6,74.8,70.7,65.2,94,79,55,29.94,29.82,2,0,7,0.02
2013-7-22,80.9,74.6,71.2,74.9,71.4,69.1,95,90,78,29.89,29.75,2,0,8,1.26
2013-7-23,89.0,78.5,70.5,78.0,72.7,68.6,95,83,65,29.83,29.70,3,0,9,0.00
2013-7-24,79.0,72.3,64.0,70.4,61.6,57.3,83,70,54,29.94,29.78,1,0,5,0.00
2013-7-25,79.5,70.6,61.4,62.8,59.6,57.3,88,69,49,30.05,29.94,1,0,5,0.00
2013-7-26,81.8,71.1,59.6,66.3,61.9,57.6,94,74,54,30.06,29.95,2,0,7,0.00
2013-7-27,79.7,70.7,66.4,67.9,63.7,56.4,92,79,61,29.95,29.84,2,0,9,0.03
2013-7-28,76.8,65.8,53.0,56.7,53.3,49.5,91,66,43,30.05,29.92,1,0,7,0.00
2013-7-29,82.0,68.5,55.3,64.0,58.4,53.1,93,72,47,30.15,30.05,2,0,7,0.00
2013-7-30,79.6,69.0,62.2,67.1,62.4,59.5,92,80,60,30.18,30.11,3,0,9,0.00
2013-7-31,76.0,72.5,68.2,69.9,68.0,64.8,93,86,79,30.04,29.92,2,0,6,0.00
2013-8-1,83.7,73.8,66.8,69.2,65.4,59.5,95,77,46,29.99,29.91,1,0,6,0.00
2013-8-2,84.5,73.6,62.0,67.9,63.9,59.6,93,73,49,30.01,29.93,3,0,11,0.00
2013-8-3,85.7,75.9,70.3,74.0,68.3,64.8,89,78,66,30.01,29.92,2,0,7,0.12
2013-8-4,80.1,72.2,64.5,67.1,58.4,54.3,92,63,44,30.11,30.00,1,0,5,0.00
2013-8-5,83.3,70.7,57.6,62.2,58.6,55.3,93,68,43,30.09,29.92,2,0,9,0.00
2013-8-6,82.9,76.1,69.8,73.6,68.5,61.3,92,78,67,29.93,29.87,2,0,8,0.00
2013-8-7,84.5,77.8,71.3,76.0,73.0,69.5,95,86,75,29.92,29.83,2,0,9,0.00
2013-8-8,87.8,79.7,72.8,75.7,73.4,70.7,93,82,63,29.93,29.83,3,1,9,0.00
2013-8-9,83.2,76.8,74.8,78.2,73.8,72.2,95,90,77,29.98,29.87,2,0,8,0.57
2013-8-10,81.8,75.7,72.9,76.2,73.4,71.4,96,93,78,30.08,29.98,1,0,6,0.20
2013-8-11,87.7,78.3,71.4,73.4,71.0,67.7,95,80,57,30.07,29.99,1,0,8,0.00
2013-8-12,83.7,73.0,67.0,77.5,69.3,64.9,94,89,73,30.05,29.86,3,0,8,0.14
2013-8-13,81.3,73.2,66.4,72.8,66.2,54.1,95,80,59,30.03,29.85,2,0,6,0.36
2013-8-14,74.2,65.2,53.7,57.0,52.4,49.4,91,65,43,30.13,30.03,1,0,5,0.00
2013-8-15,76.7,64.9,51.8,58.2,54.2,49.8,93,71,44,30.13,30.02,1,0,7,0.00
2013-8-16,81.2,69.5,56.9,61.7,57.8,54.6,93,69,48,30.10,30.04,1,0,6,0.00
2013-8-17,83.0,73.0,66.4,70.7,62.1,57.2,83,69,54,30.13,30.04,1,0,5,0.00
2013-8-18,84.5,72.5,61.3,68.1,63.3,59.3,93,75,47,30.14,30.04,2,0,5,0.00
2013-8-19,85.5,74.6,64.9,69.7,66.2,62.8,94,77,53,30.10,30.01,2,0,6,0.00
2013-8-20,84.7,74.4,65.5,72.7,68.3,63.4,93,82,64,30.11,30.02,2,0,6,0.00
2013-8-21,89.3,77.0,67.1,75.2,69.9,65.2,95,80,56,30.13,30.01,2,0,8,0.00
2013-8-22,89.3,79.0,70.1,74.3,70.3,67.2,94,77,50,30.08,29.98,1,0,7,0.00
2013-8-23,88.0,77.9,70.0,71.5,68.4,65.1,94,75,50,30.08,29.99,1,0,5,0.00
2013-8-24,88.6,74.6,64.5,68.4,64.4,57.0,94,74,37,30.20,30.08,1,0,7,0.00
2013-8-25,88.8,82.1,62.5,70.8,67.3,59.8,93,62,45,30.29,30.17,2,0,7,0.00
2013-8-26,89.3,78.6,68.9,73.2,69.8,65.7,92,76,53,30.23,30.06,2,0,6,0.00
2013-8-27,90.4,80.4,73.0,76.5,72.9,69.9,91,79,61,30.08,29.95,2,0,7,0.00
2013-8-28,95.0,83.3,73.7,73.9,71.0,67.8,91,69,42,29.98,29.89,2,0,9,0.00
2013-8-29,91.8,82.3,73.0,76.3,70.4,67.8,88,69,48,29.97,29.90,1,0,5,0.00
2013-8-30,93.0,81.1,69.9,74.7,70.9,67.5,93,73,49,29.94,29.80,2,0,5,0.00
2013-8-31,94.2,81.5,69.8,77.2,72.7,67.4,93,76,56,29.90,29.71,4,1,11,0.62
2013-9-1,87.4,76.6,69.1,75.0,70.6,66.8,94,83,63,29.87,29.68,5,1,15,0.53
2013-9-2,87.5,75.3,69.4,75.5,70.8,67.0,94,86,64,29.85,29.78,4,0,11,0.17
2013-9-3,80.2,71.0,63.1,67.0,61.3,56.6,93,73,50,30.03,29.84,1,0,6,0.00
2013-9-4,81.9,71.4,58.5,63.0,60.2,56.0,92,70,47,30.13,30.03,3,0,7,0.00
2013-9-5,85.1,72.0,60.8,66.6,62.6,58.9,94,75,44,30.17,30.09,1,0,4,0.00
2013-9-6,85.3,67.2,63.8,68.3,62.5,59.4,93,85,52,30.17,30.08,0,0,3,0.00
2013-9-7,87.2,80.9,72.4,69.9,68.2,66.5,85,66,53,30.06,29.93,3,1,10,0.00
2013-9-8,89.2,77.4,70.3,73.9,69.6,67.3,94,78,55,29.96,29.90,2,0,8,0.05
2013-9-9,91.9,79.0,67.4,74.6,70.2,65.3,93,76,52,30.00,29.92,3,1,10,0.00
2013-9-10,92.8,81.0,73.3,76.0,72.2,68.5,88,76,54,30.10,29.99,3,1,10,0.00
2013-9-11,90.7,78.9,71.3,76.1,71.8,68.5,92,80,60,30.14,30.01,4,1,9,0.00
2013-9-12,81.2,74.6,67.9,72.7,68.7,64.0,91,82,65,30.01,29.87,2,0,8,0.04
2013-9-13,71.8,66.2,55.5,55.1,48.6,45.5,75,54,42,30.05,29.98,3,1,7,0.00
2013-9-14,72.9,58.8,47.7,50.8,47.6,44.9,92,69,39,30.15,30.05,1,0,6,0.00
2013-9-15,65.5,52.3,48.0,60.5,48.6,45.6,92,87,80,30.11,30.03,0,0,2,0.00
2013-9-16,73.7,68.7,62.1,63.4,61.2,57.8,88,78,66,30.21,30.04,1,0,4,0.00
2013-9-17,77.3,65.6,56.3,57.9,55.2,52.5,92,71,44,30.25,30.10,2,0,7,0.00
2013-9-18,78.7,68.6,60.5,69.3,63.2,55.3,94,83,70,30.13,30.03,2,0,7,0.04
2013-9-19,84.4,72.5,64.8,72.8,67.8,62.9,95,86,66,30.10,29.95,3,0,9,0.02
2013-9-20,85.4,73.9,67.6,72.2,68.5,65.7,94,84,62,29.97,29.79,4,1,13,1.05
2013-9-21,73.5,65.3,55.4,65.8,58.3,50.6,95,80,46,29.85,29.70,1,0,7,0.65
2013-9-22,70.8,59.6,49.5,52.8,50.7,47.6,94,75,50,29.98,29.85,1,0,6,0.00
2013-9-23,73.6,60.3,47.8,54.9,50.7,45.9,94,73,46,30.06,29.97,1,0,8,0.00
2013-9-24,79.5,64.6,52.5,64.7,57.0,49.8,91,77,54,30.03,29.84,3,0,7,0.00
2013-9-25,77.8,68.9,63.1,66.4,62.3,60.2,92,80,60,29.87,29.81,1,0,5,0.00
2013-9-26,77.8,65.2,54.8,60.2,55.3,50.6,94,73,41,30.04,29.87,1,0,4,0.00
2013-9-27,80.9,65.8,53.9,62.1,56.2,51.8,94,74,41,30.14,30.03,2,0,6,0.00
2013-9-28,81.9,66.3,53.9,64.3,58.4,51.9,94,78,47,30.15,30.03,3,0,8,0.00
2013-9-29,67.0,62.2,57.1,61.5,58.8,54.9,93,89,75,30.05,29.99,3,0,11,0.07
2013-9-30,77.3,67.0,62.2,65.7,62.0,60.1,94,85,65,30.01,29.92,3,0,9,0.01
2013-10-1,80.4,67.6,58.9,67.4,62.4,56.9,94,84,61,30.07,29.99,3,0,10,0.00
2013-10-2,79.8,70.4,63.4,72.3,67.5,61.6,95,91,76,30.09,30.01,3,0,10,0.05
2013-10-3,83.0,73.1,68.2,71.4,68.3,65.8,95,86,60,30.07,29.96,3,0,9,0.04
2013-10-4,84.5,72.2,64.5,71.5,67.3,62.7,95,85,63,30.06,29.98,3,0,10,0.66
2013-10-5,72.2,70.0,67.6,70.6,68.3,66.1,95,95,92,30.02,29.90,2,0,6,3.75
2013-10-6,70.8,63.4,55.0,68.4,61.3,50.9,95,93,85,29.92,29.76,4,0,12,1.34
2013-10-7,63.9,54.1,47.4,50.2,47.3,44.9,93,79,54,30.15,29.88,1,0,7,0.01
2013-10-8,68.7,55.1,44.7,51.2,47.1,43.1,95,77,47,30.24,30.14,2,0,7,0.00
2013-10-9,74.4,58.1,46.6,59.1,51.6,44.7,94,80,54,30.20,30.11,1,0,4,0.00
2013-10-10,74.0,59.5,49.2,55.8,52.1,47.4,94,79,47,30.17,30.05,1,0,4,0.00
2013-10-11,76.0,60.3,49.3,59.3,53.0,47.4,94,79,47,30.09,30.00,1,0,4,0.00
2013-10-12,79.0,62.7,50.8,63.8,56.4,49.1,94,82,49,30.09,30.01,2,0,6,0.00
2013-10-13,74.9,65.9,57.8,63.7,58.1,46.7,93,77,58,30.27,30.09,1,0,4,0.00
2013-10-14,72.3,59.8,50.9,57.3,50.4,44.3,89,72,53,30.30,30.13,1,0,5,0.00
2013-10-15,71.8,63.2,54.9,63.9,59.1,52.5,93,87,72,30.14,29.92,4,1,12,0.01
2013-10-16,66.7,63.8,59.8,62.2,59.3,54.4,92,85,75,29.96,29.88,3,1,7,0.01
2013-10-17,57.3,49.9,45.8,47.9,45.9,43.6,92,86,69,30.00,29.93,1,0,4,0.05
2013-10-18,67.2,52.0,41.0,51.7,45.6,39.1,94,81,51,30.06,29.94,3,0,9,0.00
2013-10-19,54.1,48.7,41.0,49.8,45.2,38.6,93,88,70,30.03,29.83,2,0,8,0.23
2013-10-20,63.1,48.7,39.5,46.9,41.6,37.3,93,78,50,30.08,30.00,4,1,15,0.05
2013-10-21,67.9,53.1,40.0,49.6,43.8,37.9,93,73,43,30.03,29.91,4,1,13,0.00
2013-10-22,56.1,47.8,36.6,48.0,38.0,30.8,93,71,43,30.06,29.81,2,0,7,0.03
2013-10-23,50.8,45.5,39.7,44.9,37.6,31.9,88,74,54,30.09,29.77,2,1,13,0.00
2013-10-24,46.9,41.4,35.2,37.3,33.5,27.3,84,73,58,30.33,30.09,2,0,8,0.01
2013-10-25,49.2,36.9,28.5,31.6,28.4,25.8,91,73,44,30.49,30.33,1,0,6,0.00
2013-10-26,57.6,43.3,30.7,40.5,33.5,27.0,87,70,47,30.33,29.97,5,1,17,0.00
2013-10-27,61.4,45.7,34.1,40.4,36.9,31.9,93,74,36,30.12,30.03,2,0,9,0.00
2013-10-28,64.1,48.9,39.8,44.1,39.8,36.2,91,73,41,30.28,30.08,1,0,4,0.00
2013-10-29,56.4,48.7,39.2,54.1,46.2,37.1,94,91,87,30.34,30.16,1,0,5,0.09
2013-10-30,69.0,60.4,55.7,64.8,58.5,54.0,95,93,85,30.16,30.05,3,1,9,1.46
2013-10-31,67.5,64.6,59.6,64.6,61.3,55.3,93,89,80,29.83,29.40,9,4,27,0.66
2013-11-1,68.7,58.4,50.7,55.2,49.1,43.6,90,73,44,29.78,29.49,4,1,14,0.00
2013-11-2,57.8,50.9,44.2,45.8,41.9,37.7,81,72,56,30.12,29.78,1,0,8,0.01
2013-11-3,56.2,44.4,35.8,41.0,36.8,32.8,92,76,47,30.33,30.12,1,0,4,0.03
2013-11-4,62.7,56.3,51.5,46.3,44.1,40.7,81,65,48,30.37,30.27,3,0,13,0.00
2013-11-5,62.8,54.6,47.2,46.1,44.2,40.8,85,69,49,30.39,30.19,1,0,4,0.00
2013-11-6,68.2,56.9,45.8,59.4,51.0,41.9,92,81,66,30.20,29.98,6,1,16,0.26
2013-11-7,51.6,43.9,38.6,42.8,33.4,25.1,91,69,38,30.31,30.10,7,2,14,0.06
2013-11-8,54.4,41.5,30.8,33.5,30.8,26.9,90,67,36,30.41,30.24,4,0,9,0.00
2013-11-9,64.1,51.7,32.6,38.2,34.1,28.7,86,54,34,30.25,30.08,6,2,16,0.00
2013-11-10,56.9,47.5,36.3,41.1,34.0,26.1,83,62,32,30.34,30.16,6,1,14,0.00
2013-11-11,65.4,47.2,32.3,45.3,32.1,21.5,88,62,19,30.31,30.10,12,1,17,0.01
2013-11-12,45.1,35.0,27.6,40.1,23.7,15.8,89,65,40,30.66,30.23,13,8,25,0.02
2013-11-13,42.9,31.4,23.0,26.3,22.5,19.7,88,71,43,30.70,30.44,3,0,12,0.00
2013-11-14,56.3,41.5,27.3,25.8,22.1,17.7,80,50,23,30.44,30.17,6,2,14,0.00
2013-11-15,55.1,47.3,37.2,44.9,33.0,20.9,91,60,36,30.19,30.09,5,1,11,0.08
2013-11-16,63.8,55.6,47.1,58.0,52.0,44.3,92,88,80,30.11,29.87,7,2,18,0.00
2013-11-17,68.3,62.2,49.9,64.7,57.4,41.2,94,85,48,29.87,29.55,9,4,24,2.28
2013-11-18,57.9,49.5,39.5,44.6,37.2,29.8,85,64,42,30.22,29.84,6,2,20,0.00
2013-11-19,45.0,37.9,30.3,31.2,29.3,27.2,89,72,53,30.34,30.22,7,2,15,0.00
2013-11-20,55.5,41.8,29.4,36.9,31.4,25.5,86,68,44,30.30,30.18,4,1,10,0.00
2013-11-21,63.9,51.4,39.1,52.0,44.4,33.3,94,78,62,30.29,30.15,4,0,9,0.08
2013-11-22,57.3,52.1,42.2,55.6,48.3,34.9,94,87,74,30.39,30.16,10,3,20,0.03
2013-11-23,44.8,35.5,24.9,35.2,20.8,11.2,78,56,31,30.61,30.36,12,6,21,0.00
2013-11-24,30.8,25.2,19.7,17.2,13.3,10.9,75,61,44,30.74,30.54,8,3,16,0.00
2013-11-25,41.2,33.3,24.2,31.8,20.1,14.9,90,60,42,30.55,30.20,6,1,14,0.00
2013-11-26,36.2,35.1,33.4,33.6,31.7,27.6,92,87,72,30.25,29.94,6,2,17,0.06
2013-11-27,35.8,28.8,20.4,27.6,19.4,12.4,77,68,57,30.36,29.98,9,3,23,0.01
2013-11-28,39.2,27.8,18.7,20.9,16.8,13.5,84,65,41,30.48,30.32,6,1,14,0.00
2013-11-29,44.7,32.7,22.0,27.3,23.3,18.3,87,69,47,30.64,30.48,3,0,8,0.00
2013-11-30,56.7,40.4,25.9,33.3,27.8,22.8,89,64,38,30.50,30.20,6,1,13,0.00
2013-12-1,55.9,48.3,40.5,38.9,34.3,29.0,78,59,51,30.21,29.95,4,2,9,0.00
2013-12-2,56.8,46.0,36.6,43.3,38.7,33.3,88,76,58,29.95,29.74,2,0,5,0.00
2013-12-3,58.7,49.9,38.6,51.3,45.6,36.2,93,86,73,29.84,29.75,3,0,10,0.00
2013-12-4,69.7,60.4,48.6,60.6,54.7,46.0,94,82,68,29.82,29.67,7,2,21,0.00
2013-12-5,68.7,50.3,34.6,62.9,45.8,31.1,91,85,75,30.16,29.75,8,4,19,0.52
2013-12-6,34.6,29.9,27.5,31.4,27.3,25.3,92,90,85,30.40,30.11,8,5,17,0.53
2013-12-7,26.8,24.5,22.5,22.8,20.6,18.9,87,85,81,30.60,30.49,5,2,10,0.06
2013-12-8,33.6,28.4,24.2,31.8,25.4,20.0,93,89,83,30.50,30.05,6,2,11,0.18
2013-12-9,33.7,30.7,26.5,31.9,27.0,20.9,93,86,77,30.27,30.06,3,1,12,0.00
2013-12-10,31.9,25.9,21.8,23.2,20.4,19.1,90,80,63,30.40,30.19,5,1,14,0.02
2013-12-11,38.5,27.2,17.5,28.1,21.2,14.8,91,79,64,30.57,30.34,7,2,17,0.00
2013-12-12,29.2,21.9,11.5,16.1,11.6,7.1,85,66,39,30.63,30.39,4,1,9,0.00
2013-12-13,43.8,31.5,20.3,32.4,21.8,14.9,92,69,43,30.39,30.12,5,1,15,0.04
2013-12-14,40.8,37.2,34.3,39.2,35.0,31.6,94,92,88,30.14,29.73,5,1,16,0.42
2013-12-15,34.5,30.9,28.3,31.6,26.0,23.3,89,82,76,30.17,29.96,5,2,18,0.00
2013-12-16,45.5,37.0,31.6,36.2,31.7,27.3,89,82,69,30.16,30.02,5,2,11,0.00
2013-12-17,43.3,35.8,30.5,36.9,30.8,26.2,87,82,70,30.24,30.00,4,1,12,0.00
2013-12-18,44.3,35.6,25.2,26.7,22.1,17.9,86,61,35,30.34,30.09,6,2,14,0.00
2013-12-19,61.9,51.7,42.1,46.1,35.1,20.5,65,53,39,30.12,29.96,8,5,21,0.00
2013-12-20,63.5,58.3,53.1,58.9,50.1,38.9,91,75,52,29.97,29.82,7,5,17,0.04
2013-12-21,69.5,63.7,59.7,64.3,60.4,57.6,94,89,82,29.83,29.43,11,4,24,2.98
2013-12-22,61.6,51.7,38.7,59.0,47.4,34.1,92,85,79,30.10,29.54,8,3,20,0.20
2013-12-23,38.7,32.9,27.7,34.7,26.0,20.5,89,76,67,30.45,30.10,5,2,17,0.01
2013-12-24,27.8,22.4,16.5,22.0,13.1,6.2,79,67,51,30.62,30.43,5,2,16,0.00
2013-12-25,40.9,29.6,18.0,26.3,18.6,13.3,84,65,43,30.50,30.25,5,1,10,0.00
2013-12-26,43.1,35.5,28.9,29.5,27.0,24.5,84,72,54,30.42,30.25,4,1,14,0.00
2013-12-27,51.2,37.8,27.5,32.4,27.8,23.3,85,69,46,30.45,30.33,5,2,13,0.00
2013-12-28,50.8,41.9,30.4,36.6,29.8,25.6,87,63,46,30.34,30.02,5,1,10,0.03
2013-12-29,47.9,39.8,31.6,42.8,36.3,27.4,93,87,75,30.11,29.86,6,1,17,0.36
2013-12-30,31.7,28.4,23.6,27.7,21.7,16.8,87,76,66,30.29,30.10,4,1,14,0.00
2013-12-31,38.8,30.1,23.5,24.6,20.3,16.9,80,67,49,30.45,30.24,5,2,12,0.00
2014-1-1,48.1,38.0,27.9,31.0,27.4,23.8,85,67,43,30.31,30.00,6,2,13,0.00
2014-1-2,38.4,28.8,16.8,35.3,24.5,9.9,93,84,70,30.36,29.83,9,3,21,0.12